Location: Bh?mavarapp?du
(16.7041°N, 80.6518°E)
Time: 00:27:42
(UTC+00:00)

Cosmos 2016 Rocket - Pass Details

Date: 21 April 2021
Orbit: 947 x 1000 km, 83.0° (Epoch: 07 May)

Event Time Altitude Azimuth Distance (km) Brightness Sun altitude
Rises 23:37:30 0° 349° (N) 3,700 7.1 -10.1°
Reaches altitude 10° 23:40:04 10° 345° (NNW) 2,745 6.4 -9.5°
Maximum altitude 23:46:13 58° 268° (W) 1,134 4.1 -8.1°
Drops below altitude 10° 23:52:17 10° 191° (S) 2,706 6.1 -6.7°
Sets 23:54:49 0° 187° (S) 3,644 6.8 -6.1°
